Barrow, AK

2:13 AM AKDT on June 18, 2018 (GMT -0800)
Wiley Post-Will Rogers Memorial

Weather History for PABR - January, 2017

Change the Weather History Date:

Tuesday, January 10, 2017

  Actual Average Record
Temperature  
Mean Temperature 14 °F -13 °F  
Max Temperature 25 °F -7 °F 28 °F (2011)
Min Temperature 2 °F -19 °F -47 °F (1952)
Degree Days  
Heating Degree Days 51 78  
Month to date heating degree days 468 773  
Since 1 July heating degree days 7427 8982  
Cooling Degree Days 0 0  
Month to date cooling degree days 0 0  
Year to date cooling degree days 0 0  
Moisture  
Dew Point 12 °F    
Average Humidity 84    
Maximum Humidity 89    
Minimum Humidity 78    
Precipitation  
Precipitation 0.00 in 0.00 in 0.07 in (1971)
Month to date precipitation 0.40 0.04  
Year to date precipitation 0.40 0.04  
Snow  
Snow 0.00 in 0.10 in 0.70 in (1971)
Month to date snowfall 3.4 0.9  
Since 1 July snowfall 20.7 24.7  
Snow Depth 5.00 in    
Sea Level Pressure  
Sea Level Pressure 29.88 in    
Wind  
Wind Speed 15 mph (WSW)    
Max Wind Speed 25 mph    
Max Gust Speed 34 mph    
Visibility 7 miles    
Events      
T = Trace of Precipitation, MM = Missing Value Source: NWS Daily Summary

Daily Weather History Graph

Daily Weather History Graph

Search for Another Location

Airport or City:

Astronomy

Dec. 31, 1969 Rise Set
Actual Time Sun does not set Sun does not set
Civil Twilight 11:19 AM AKST 3:50 PM AKST
Nautical Twilight 9:30 AM AKST 5:39 PM AKST
Astronomical Twilight 8:08 AM AKST 7:02 PM AKST
Moon 12:23 PM AKST (1/10) 11:33 AM AKST (1/10)
Length of Visible Light 4h 30m
Length of Day
0h 00m
Waxing Gibbous, 96% of the Moon is Illuminated
Jan 10
Waxing Gibbous
Jan 12
Full
Jan 19
Last Quarter
Jan 27
New
Feb 3
First Quarter

Hourly Weather History & Observations

Time (AKST) Temp. Windchill Dew Point Humidity Pressure Visibility Wind Dir Wind Speed Gust Speed Precip Events Conditions
12:53 AM 17.1 °F 2.5 °F 12.0 °F 81% 29.98 in 10.0 mi WSW 15.0 mph - N/A   Clear
1:53 AM 18.0 °F 3.1 °F 12.0 °F 78% 29.98 in 10.0 mi WSW 16.1 mph - N/A   Clear
2:53 AM 17.1 °F 2.5 °F 12.0 °F 81% 29.98 in 10.0 mi WSW 15.0 mph - N/A   Clear
3:53 AM 17.1 °F 3.6 °F 12.0 °F 81% 29.98 in 10.0 mi West 12.7 mph - N/A   Clear
4:53 AM 16.0 °F 2.9 °F 10.9 °F 81% 29.97 in 10.0 mi WSW 11.5 mph - N/A   Clear
5:53 AM 16.0 °F 2.9 °F 12.0 °F 84% 29.95 in 10.0 mi West 11.5 mph - N/A   Clear
6:53 AM 14.0 °F 1.2 °F 10.0 °F 84% 29.94 in 10.0 mi WSW 10.4 mph - N/A   Clear
7:53 AM 12.9 °F -0.2 °F 9.0 °F 84% 29.94 in 10.0 mi WSW 10.4 mph - N/A   Clear
8:53 AM 12.0 °F 0.5 °F 8.1 °F 84% 29.93 in 10.0 mi WSW 8.1 mph - N/A   Scattered Clouds
9:53 AM 6.1 °F -8.7 °F 1.9 °F 83% 29.92 in 9.0 mi SW 10.4 mph - N/A   Scattered Clouds
10:53 AM 7.0 °F -8.3 °F 3.0 °F 84% 29.91 in 10.0 mi SW 11.5 mph - N/A   Clear
11:53 AM 1.9 °F -10.6 °F -2.0 °F 83% 29.90 in 8.0 mi SW 6.9 mph - N/A   Clear
12:53 PM 6.1 °F -6.8 °F 1.0 °F 80% 29.89 in 10.0 mi WSW 8.1 mph - N/A   Clear
1:53 PM 12.9 °F -0.9 °F 8.1 °F 81% 29.88 in 10.0 mi SW 11.5 mph - N/A   Clear
2:04 PM 12.9 °F -1.6 °F 9.0 °F 84% 29.87 in 10.0 mi WSW 12.7 mph - N/A   Scattered Clouds
2:13 PM 14.0 °F -2.5 °F 10.0 °F 84% 29.87 in 10.0 mi WSW 17.3 mph - N/A   Mostly Cloudy
2:23 PM 15.1 °F -1.1 °F 10.9 °F 84% 29.87 in 6.0 mi WSW 17.3 mph - N/A   Overcast
2:36 PM 16.0 °F 0.6 °F 12.0 °F 84% 29.87 in 2.0 mi WSW 16.1 mph - N/A   Overcast
2:43 PM 16.0 °F 0.1 °F 12.0 °F 84% 29.87 in 1.2 mi WSW 17.3 mph - N/A   Overcast
2:53 PM 16.0 °F 0.6 °F 12.9 °F 88% 29.87 in 2.0 mi WSW 16.1 mph - N/A   Overcast
3:18 PM 17.1 °F 2.0 °F 12.9 °F 84% 29.85 in 5.0 mi WSW 16.1 mph - N/A   Overcast
3:45 PM 18.0 °F 2.6 °F 14.0 °F 84% 29.85 in 2.0 mi WSW 17.3 mph - N/A   Overcast
3:53 PM 18.0 °F 2.6 °F 15.1 °F 88% 29.86 in 2.5 mi WSW 17.3 mph - N/A   Overcast
4:00 PM 19.0 °F 4.0 °F 15.1 °F 85% 29.85 in 4.0 mi WSW 17.3 mph - N/A   Overcast
4:23 PM 19.0 °F 4.0 °F 16.0 °F 88% 29.84 in 2.5 mi SW 17.3 mph - N/A   Overcast
4:44 PM 19.9 °F 5.2 °F 16.0 °F 85% 29.83 in 1.8 mi SW 17.3 mph - N/A   Overcast
4:53 PM 19.9 °F 5.7 °F 16.0 °F 85% 29.83 in 2.0 mi SW 16.1 mph - N/A   Overcast
5:15 PM 19.9 °F 5.7 °F 17.1 °F 89% 29.82 in 4.0 mi WSW 16.1 mph - N/A   Overcast
5:53 PM 24.1 °F 9.4 °F 19.9 °F 84% 29.80 in 5.0 mi WSW 20.7 mph - N/A   Overcast
6:53 PM 25.0 °F 10.6 °F 19.9 °F 81% 29.79 in 10.0 mi West 20.7 mph 34.5 mph N/A   Overcast
7:53 PM 21.9 °F 5.1 °F 18.0 °F 85% 29.81 in 5.0 mi West 25.3 mph 33.4 mph N/A   Overcast
8:53 PM 21.9 °F 6.5 °F 18.0 °F 85% 29.83 in 9.0 mi West 20.7 mph - N/A   Overcast
9:53 PM 24.1 °F 10.6 °F 19.9 °F 84% 29.83 in 4.0 mi West 17.3 mph 26.5 mph N/A   Overcast
10:53 PM 24.1 °F 8.3 °F 21.0 °F 88% 29.84 in 4.0 mi West 24.2 mph - N/A   Overcast
11:53 PM 24.1 °F 9.4 °F 21.0 °F 88% 29.84 in 4.0 mi West 20.7 mph - N/A   Overcast